Weather in Abay

Kazakhstan     49°37′56″N   72°51′34″E
temp.,
°C
wind,
m/s
gust,
m/s
humid.,
%
clouds,
%
prec.,
mm/h
press.,
hPa
HPBL,
m
11 april, sun
sun1100:00+4ene917660 0.0 1031476
03:00+2ene918730 0.0 1032475
06:000ene918720 0.0 1034468
09:00+3ene1017695 0.0 1035586
12:00+7ene1114520 0.0 1034758
15:00+11ene1012370 0.0 10331014
18:00+11ene913410 0.0 1033993
21:00+7ene815530 0.0 1034515
12 april, mon
mon1200:00+5ene716560 0.0 1034453
03:00+3ene512640 0.0 1034286
06:00+1ene411680 0.0 1034233
09:00+5ene712440 0.0 1034412
12:00+12ene811300 0.0 1032702
15:00+15ene79240 0.0 1030971
18:00+15ene68280 0.0 1029953
21:00+9ene511460 0.0 1031202
13 april, tue
tue1300:00+7ene510545 0.0 1031174
03:00+5ne510600 0.0 1032178
06:00+3ne512645 0.0 1033225
09:00+6ene711485 0.0 1033398
12:00+11ene8103222 0.0 1033801
15:00+14ene895297 0.0 10331100
18:00+11ene91161100 0.0 1034883
21:00+7ene81364100 0.0 1036578
14 april, wed
wed1400:00+6ene61268100 0.0 1036460
03:00+4ene5126745 0.0 1036328
06:00+2ene513704 0.0 1036300
09:00+6e712510 0.0 1035464
12:00+12e810310 0.0 1033722
15:00+15ene78270 0.0 1030962
18:00+15ene78290 0.0 1028980
21:00+10ene49450 0.0 1028145
15 april, thu
thu1500:00+7ene49530 0.0 1027142
03:00+6ene48550 0.0 1026131
06:00+4ene410590 0.0 1026157
09:00+8e69450 0.0 1025342
12:00+14ene68315 0.0 1022725
15:00+17ene67230 0.0 10201193
18:00+17ene66230 0.0 10191333
21:00+12ene59390 0.0 1019123